Location: Sagn�
(15.2046°N, 12.7898°W)
Time: 13:46:41
(UTC+00:00)

Milstar 3 - Pass Details

Date: 08 May 2021
Orbit: 1089 x 5155 km, 28.3° (Epoch: 08 May)

Event Time Altitude Azimuth Distance (km) Brightness Sun altitude
Rises 22:07:17 0° 265° (W) 7,440 7.6 -38.8°
Reaches altitude 10° 22:13:24 10° 271° (W) 5,739 6.9 -39.9°
Maximum altitude 22:27:21 47° 341° (NNW) 2,240 4.4 -42.5°
Enters shadow 22:29:51 40° 18° (NNE) 2,222 4.3 -42.9°
